START_TIME,STEP,MOV.,H8,t_acc.,H43,t_acc.,M25,t_acc.,H9,t_acc.
1979-03-09 09:00:26.970 ,0,0,0.,12.0,0.,12.0,0.,12.0,0.,12.0
1979-03-09 09:00:38.970 ,0,0,0.,12.0,0.,12.0,0.,12.0,0.,12.0
1979-03-09 09:00:50.960 ,1,0,0.,12.0,0.,12.0,0.,12.0,0.,12.0
1979-03-09 09:01:02.960 ,1,0,0.,12.0,0.,12.0,0.,12.0,0.,12.0
1979-03-09 09:01:14.960 ,2,0,0.,12.0,0.,12.0,0.,12.0,0.,12.0
1979-03-09 09:01:26.960 ,2,0,0.,12.0,0.,12.0,0.,12.0,0.,12.0
1979-03-09 09:01:38.960 ,3,0,0.,12.0,0.,12.0,0.,12.0,0.,12.0
1979-03-09 09:01:50.960 ,3,0,0.,12.0,0.,12.0,0.,12.0,0.,12.0
1979-03-09 09:02:02.960 ,4,0,0.,12.0,0.,12.0,0.,12.0,0.,12.0
1979-03-09 09:02:14.960 ,4,0,0.,12.0,0.,12.0,0.,12.0,0.,12.0
1979-03-09 09:02:26.960 ,5,0,0.,12.0,0.,12.0,0.,12.0,0.,12.0
1979-03-09 09:02:38.960 ,5,0,0.,12.0,0.,12.0,0.,12.0,0.,12.0
1979-03-09 09:02:50.960 ,6,0,0.,12.0,0.,12.0,0.,12.0,0.,12.0
1979-03-09 09:03:02.960 ,6,0,0.,12.0,0.,12.0,0.,12.0,0.,12.0
1979-03-09 09:03:14.960 ,7,0,0.,12.0,0.,12.0,0.,12.0,0.,12.0
1979-03-09 09:03:26.960 ,7,0,0.,12.0,0.,12.0,0.,12.0,0.,12.0
1979-03-09 09:03:38.960 ,7,0,0.,12.0,0.,12.0,0.,12.0,0.,12.0
1979-03-09 09:03:50.960 ,7,0,0.,12.0,0.,12.0,0.,12.0,0.,12.0
1979-03-09 09:04:02.960 ,6,0,0.,12.0,0.,12.0,0.,12.0,0.,12.0
1979-03-09 09:04:14.960 ,6,0,0.,12.0,0.,12.0,0.,12.0,0.,12.0
1979-03-09 09:04:26.960 ,5,0,0.,12.0,0.,12.0,0.,12.0,0.,12.0
1979-03-09 09:04:38.960 ,5,0,0.,12.0,0.,12.0,0.,12.0,0.,12.0
1979-03-09 09:04:50.960 ,4,0,0.,12.0,0.,12.0,0.,12.0,0.,12.0
1979-03-09 09:05:02.960 ,4,0,0.,12.0,0.,12.0,0.,12.0,0.,12.0
1979-03-09 09:05:14.960 ,3,0,0.,12.0,0.,12.0,0.,12.0,0.,12.0
1979-03-09 09:05:26.960 ,3,0,0.,12.0,0.,12.0,0.,12.0,0.,12.0
1979-03-09 09:05:38.960 ,2,0,0.,12.0,0.,12.0,0.,12.0,0.,12.0
1979-03-09 09:05:50.960 ,2,0,0.,12.0,0.,12.0,0.,12.0,0.,12.0
1979-03-09 09:06:02.960 ,1,0,0.,12.0,0.,12.0,0.,12.0,0.,12.0
1979-03-09 09:06:14.960 ,1,0,0.,12.0,0.,12.0,0.,12.0,0.,12.0
1979-03-09 09:06:26.960 ,0,0,0.,12.0,0.,12.0,0.,12.0,0.,12.0
1979-03-09 09:06:38.960 ,0,0,0.,12.0,0.,12.0,0.,12.0,0.,12.0
1979-03-09 09:06:50.960 ,0,0,0.,12.0,0.,12.0,0.,12.0,0.,12.0
1979-03-09 09:07:02.960 ,0,0,0.,12.0,0.,12.0,0.,12.0,0.,12.0
1979-03-09 09:07:14.960 ,1,0,0.,12.0,0.,12.0,0.,12.0,0.,12.0
1979-03-09 09:07:26.960 ,1,0,0.,12.0,0.,12.0,0.,12.0,0.,12.0
1979-03-09 09:07:38.960 ,2,0,0.,12.0,0.,12.0,0.,12.0,0.,12.0
1979-03-09 09:07:50.960 ,2,0,0.,12.0,0.,12.0,0.,12.0,0.,12.0
1979-03-09 09:08:02.960 ,3,0,0.,12.0,0.,12.0,0.,12.0,0.,12.0
1979-03-09 09:08:14.960 ,3,0,0.,12.0,0.,12.0,0.,12.0,0.,12.0
1979-03-09 09:08:26.960 ,4,0,0.,12.0,0.,12.0,0.,12.0,0.,12.0
1979-03-09 09:08:38.960 ,4,0,0.,12.0,0.,12.0,0.,12.0,0.,12.0
1979-03-09 09:08:50.960 ,5,0,0.,12.0,0.,12.0,0.,12.0,0.,12.0
1979-03-09 09:09:02.960 ,5,0,0.,12.0,0.,12.0,0.,12.0,0.,12.0
1979-03-09 09:09:14.960 ,6,0,0.,12.0,0.,12.0,0.,12.0,0.,12.0
1979-03-09 09:09:26.960 ,6,0,0.,12.0,0.,12.0,0.,12.0,0.,12.0
1979-03-09 09:09:38.960 ,7,0,0.,12.0,0.,12.0,0.,12.0,0.,12.0
1979-03-09 09:09:50.960 ,7,0,0.,12.0,0.,12.0,0.,12.0,0.,12.0
1979-03-09 09:10:02.960 ,7,0,0.,12.0,0.,12.0,0.,12.0,0.,12.0
1979-03-09 09:10:14.960 ,7,0,0.,12.0,0.,12.0,0.,12.0,0.,12.0
1979-03-09 09:10:26.950 ,6,0,0.,12.0,0.,12.0,0.,12.0,0.,12.0
1979-03-09 09:10:38.950 ,6,0,0.,12.0,0.,12.0,0.,12.0,0.,12.0
1979-03-09 09:10:50.950 ,5,0,0.,12.0,0.,12.0,0.,12.0,0.,12.0
1979-03-09 09:11:02.950 ,5,0,0.,12.0,0.,12.0,0.,12.0,0.,12.0
1979-03-09 09:11:14.950 ,4,0,0.,12.0,0.,12.0,0.,12.0,0.,12.0
1979-03-09 09:11:26.950 ,4,0,0.,12.0,0.,12.0,0.,12.0,0.,12.0
1979-03-09 09:11:38.950 ,3,0,0.,12.0,0.,12.0,0.,12.0,0.,12.0
1979-03-09 09:11:50.950 ,3,0,0.,12.0,0.,12.0,0.,12.0,0.,12.0
1979-03-09 09:12:02.950 ,2,0,0.,12.0,0.,12.0,0.,12.0,0.,12.0
1979-03-09 09:12:14.950 ,2,0,0.,12.0,0.,12.0,0.,12.0,0.,12.0
1979-03-09 09:12:26.950 ,1,0,0.,12.0,0.,12.0,0.,12.0,0.,12.0
1979-03-09 09:12:38.950 ,1,0,0.,12.0,0.,12.0,0.,12.0,0.,12.0
1979-03-09 09:12:50.950 ,0,0,0.,12.0,0.,12.0,0.,12.0,0.,12.0
1979-03-09 09:13:02.950 ,0,0,0.,12.0,0.,12.0,0.,12.0,0.,12.0
1979-03-09 09:13:14.950 ,0,0,0.,12.0,0.,12.0,0.,12.0,0.,12.0
1979-03-09 09:13:26.950 ,0,0,0.,12.0,0.,12.0,0.,12.0,0.,12.0
1979-03-09 09:13:38.950 ,1,0,0.,12.0,0.,12.0,0.,12.0,0.,12.0
1979-03-09 09:13:50.950 ,1,0,0.,12.0,0.,12.0,0.,12.0,0.,12.0
1979-03-09 09:14:02.950 ,2,0,0.,12.0,0.,12.0,0.,12.0,0.,12.0
1979-03-09 09:14:14.950 ,2,0,0.,12.0,0.,12.0,0.,12.0,0.,12.0
1979-03-09 09:14:26.950 ,3,0,0.,12.0,0.,12.0,0.,12.0,0.,12.0
1979-03-09 09:14:38.950 ,3,0,0.,12.0,0.,12.0,0.,12.0,0.,12.0
1979-03-09 09:14:50.950 ,4,0,0.,12.0,0.,12.0,0.,12.0,0.,12.0
1979-03-09 09:15:02.950 ,4,0,0.,12.0,0.,12.0,0.,12.0,0.,12.0
1979-03-09 09:15:14.950 ,5,0,0.,12.0,0.,12.0,0.,12.0,0.,12.0
1979-03-09 09:15:26.950 ,5,0,0.,12.0,0.,12.0,0.,12.0,0.,12.0
1979-03-09 09:15:38.950 ,6,0,0.,12.0,0.,12.0,0.,12.0,0.,12.0
1979-03-09 09:15:50.950 ,6,0,0.,12.0,0.,12.0,0.,12.0,0.,12.0
1979-03-09 09:16:02.950 ,7,0,0.,12.0,0.,12.0,0.,12.0,0.,12.0
1979-03-09 09:16:14.950 ,7,0,0.,12.0,0.,12.0,0.,12.0,0.,12.0
1979-03-09 09:16:26.950 ,7,0,0.,12.0,0.,12.0,0.,12.0,0.,12.0
1979-03-09 09:16:38.950 ,7,0,0.,12.0,0.,12.0,0.,12.0,0.,12.0
1979-03-09 09:16:50.950 ,6,0,0.,12.0,0.,12.0,0.,12.0,0.,12.0
1979-03-09 09:17:02.950 ,6,0,0.,12.0,0.,12.0,0.,12.0,0.,12.0
1979-03-09 09:17:14.950 ,5,0,0.,12.0,0.,12.0,0.,12.0,0.,12.0
1979-03-09 09:17:26.950 ,5,0,0.,12.0,0.,12.0,0.,12.0,0.,12.0
1979-03-09 09:17:38.950 ,4,0,0.,12.0,0.,12.0,0.,12.0,0.,12.0
1979-03-09 09:17:50.950 ,4,0,0.,12.0,0.,12.0,0.,12.0,0.,12.0
1979-03-09 09:18:02.950 ,3,0,0.,12.0,0.,12.0,0.,12.0,0.,12.0
1979-03-09 09:18:14.950 ,3,0,0.,12.0,0.,12.0,0.,12.0,0.,12.0
1979-03-09 09:18:26.940 ,2,0,0.,12.0,0.,12.0,0.,12.0,0.,12.0
1979-03-09 09:18:38.940 ,2,0,0.,12.0,0.,12.0,0.,12.0,0.,12.0
1979-03-09 09:18:50.940 ,1,0,0.,12.0,0.,12.0,0.,12.0,0.,12.0
1979-03-09 09:19:02.940 ,1,0,0.,12.0,0.,12.0,0.,12.0,0.,12.0
1979-03-09 09:19:14.940 ,0,0,0.,12.0,0.,12.0,0.,12.0,0.,12.0
1979-03-09 09:19:26.940 ,0,0,0.,12.0,0.,12.0,0.,12.0,0.,12.0
1979-03-09 09:19:38.940 ,0,0,0.,12.0,0.,12.0,0.,12.0,0.,12.0
1979-03-09 09:19:50.940 ,0,0,0.,12.0,0.,12.0,0.,12.0,0.,12.0
1979-03-09 09:20:02.940 ,1,0,0.,12.0,0.,12.0,0.,12.0,0.,12.0
1979-03-09 09:20:14.940 ,1,0,0.,12.0,0.,12.0,0.,12.0,0.,12.0
1979-03-09 09:20:26.940 ,2,0,0.,12.0,0.,12.0,0.,12.0,0.,12.0
1979-03-09 09:20:38.940 ,2,0,0.,12.0,0.,12.0,0.,12.0,0.,12.0
1979-03-09 09:20:50.940 ,3,0,0.,12.0,0.,12.0,0.,12.0,0.,12.0
1979-03-09 09:21:02.940 ,3,0,0.,12.0,0.,12.0,0.,12.0,0.,12.0
1979-03-09 09:21:14.940 ,4,0,0.,12.0,0.,12.0,0.,12.0,0.,12.0
1979-03-09 09:21:26.940 ,4,0,0.,12.0,0.,12.0,0.,12.0,0.,12.0
1979-03-09 09:21:38.940 ,5,0,0.,12.0,0.,12.0,0.,12.0,0.,12.0
1979-03-09 09:21:50.940 ,5,0,0.,12.0,0.,12.0,0.,12.0,0.,12.0
1979-03-09 09:22:02.940 ,6,0,0.,12.0,0.,12.0,0.,12.0,0.,12.0
1979-03-09 09:22:14.940 ,6,0,0.,12.0,0.,12.0,0.,12.0,0.,12.0
1979-03-09 09:22:26.940 ,7,0,0.,12.0,0.,12.0,0.,12.0,0.,12.0
1979-03-09 09:22:38.940 ,7,0,0.,12.0,0.,12.0,0.,12.0,0.,12.0
1979-03-09 09:22:50.940 ,7,0,0.,12.0,0.,12.0,0.,12.0,0.,12.0
1979-03-09 09:23:02.940 ,7,0,0.,12.0,0.,12.0,0.,12.0,0.,12.0
1979-03-09 09:23:14.940 ,6,0,0.,12.0,0.,12.0,0.,12.0,0.,12.0
1979-03-09 09:23:26.940 ,6,0,0.,12.0,0.,12.0,0.,12.0,0.,12.0
1979-03-09 09:23:38.940 ,5,0,0.,12.0,0.,12.0,0.,12.0,0.,12.0
1979-03-09 09:23:50.940 ,5,0,0.,12.0,0.,12.0,0.,12.0,0.,12.0
1979-03-09 09:24:02.940 ,4,0,0.,12.0,0.,12.0,0.,12.0,0.,12.0
1979-03-09 09:24:14.940 ,4,0,0.,12.0,0.,12.0,0.,12.0,0.,12.0
1979-03-09 09:24:26.940 ,3,0,0.,12.0,0.,12.0,0.,12.0,0.,12.0
1979-03-09 09:24:38.940 ,3,0,0.,12.0,0.,12.0,0.,12.0,0.,12.0
1979-03-09 09:24:50.940 ,2,0,0.,12.0,0.,12.0,0.,12.0,0.,12.0
1979-03-09 09:25:02.940 ,2,0,0.,12.0,0.,12.0,0.,12.0,0.,12.0
1979-03-09 09:25:14.940 ,1,0,0.,12.0,0.,12.0,0.,12.0,0.,12.0
1979-03-09 09:25:26.940 ,1,0,0.,12.0,0.,12.0,0.,12.0,0.,12.0
1979-03-09 09:25:38.940 ,0,0,0.,12.0,0.,12.0,0.,12.0,0.,12.0
1979-03-09 09:25:50.940 ,0,0,0.,12.0,0.,12.0,0.,12.0,0.,12.0
1979-03-09 09:26:02.940 ,0,0,0.,12.0,0.,12.0,0.,12.0,0.,12.0
1979-03-09 09:26:14.940 ,0,0,0.,12.0,0.,12.0,0.,12.0,0.,12.0
1979-03-09 09:26:26.940 ,1,0,0.,12.0,0.,12.0,0.,12.0,0.,12.0
1979-03-09 09:26:38.940 ,1,0,0.,12.0,0.,12.0,0.,12.0,0.,12.0
1979-03-09 09:26:50.940 ,2,0,0.,12.0,0.,12.0,0.,12.0,0.,12.0
1979-03-09 09:27:02.940 ,2,0,0.,12.0,0.,12.0,0.,12.0,0.,12.0
1979-03-09 09:27:14.940 ,3,0,0.,12.0,0.,12.0,0.,12.0,0.,12.0
1979-03-09 09:27:26.940 ,3,0,0.,12.0,0.,12.0,0.,12.0,0.,12.0
1979-03-09 09:27:38.940 ,4,0,0.,12.0,0.,12.0,0.,12.0,0.,12.0
1979-03-09 09:27:50.940 ,4,0,0.,12.0,0.,12.0,0.,12.0,0.,12.0
1979-03-09 09:28:02.930 ,5,0,0.,12.0,0.,12.0,0.,12.0,0.,12.0
1979-03-09 09:28:14.930 ,5,0,0.,12.0,0.,12.0,0.,12.0,0.,12.0
1979-03-09 09:28:26.930 ,6,0,0.,12.0,0.,12.0,0.,12.0,0.,12.0
1979-03-09 09:28:38.930 ,6,0,0.,12.0,0.,12.0,0.,12.0,0.,12.0
1979-03-09 09:28:50.930 ,7,0,0.,12.0,0.,12.0,0.,12.0,0.,12.0
1979-03-09 09:29:02.930 ,7,0,0.,12.0,0.,12.0,0.,12.0,0.,12.0
1979-03-09 09:29:14.930 ,7,0,0.,12.0,0.,12.0,0.,12.0,0.,12.0
1979-03-09 09:29:26.930 ,7,0,0.,12.0,0.,12.0,0.,12.0,0.,12.0
1979-03-09 09:29:38.930 ,6,0,0.,12.0,0.,12.0,0.,12.0,0.,12.0
1979-03-09 09:29:50.930 ,6,0,0.,12.0,0.,12.0,0.,12.0,0.,12.0
1979-03-09 09:30:02.930 ,5,0,0.,12.0,0.,12.0,0.,12.0,0.,12.0
1979-03-09 09:30:14.930 ,5,0,0.,12.0,0.,12.0,0.,12.0,0.,12.0
1979-03-09 09:30:26.930 ,4,0,0.,12.0,0.,12.0,0.,12.0,0.,12.0
1979-03-09 09:30:38.930 ,4,0,0.,12.0,0.,12.0,0.,12.0,0.,12.0
1979-03-09 09:30:50.930 ,3,0,0.,12.0,0.,12.0,0.,12.0,0.,12.0
1979-03-09 09:31:02.930 ,3,0,0.,12.0,0.,12.0,0.,12.0,0.,12.0
1979-03-09 09:31:14.930 ,0,1,0.,12.0,0.,12.0,0.,12.0,0.,12.0
1979-03-09 09:31:26.930 ,0,1,0.,12.0,0.,12.0,0.,12.0,0.,12.0
1979-03-09 09:31:38.930 ,3,1,0.,12.0,0.,12.0,0.,12.0,0.,12.0
1979-03-09 09:31:50.930 ,3,1,0.,12.0,0.,12.0,0.,12.0,0.,12.0
1979-03-09 09:32:02.930 ,7,1,0.,12.0,0.,12.0,0.,12.0,0.,12.0
1979-03-09 09:32:14.930 ,7,1,0.,12.0,0.,12.0,0.,12.0,0.,12.0
1979-03-09 09:32:26.930 ,4,1,0.,12.0,0.,12.0,0.,12.0,0.,12.0
1979-03-09 09:32:38.930 ,4,1,0.,12.0,0.,12.0,0.,12.0,0.,12.0
1979-03-09 09:32:50.930 ,0,1,0.,12.0,0.,12.0,0.,12.0,0.,12.0
1979-03-09 09:33:02.930 ,0,1,0.,12.0,0.,12.0,0.,12.0,0.,12.0
1979-03-09 09:33:14.930 ,3,1,0.,12.0,0.,12.0,0.,12.0,0.,12.0
1979-03-09 09:33:26.930 ,3,1,0.,12.0,0.,12.0,0.,12.0,0.,12.0
1979-03-09 09:33:38.930 ,0,0,0.,12.0,0.,12.0,0.,12.0,0.,12.0
1979-03-09 09:33:50.930 ,0,0,,0,,0,,0,,0
1979-03-09 09:34:02.930 ,0,0,,0,,0,,0,,0
1979-03-09 09:34:14.930 ,0,0,,0,,0,,0,,0
1979-03-09 09:34:20.330 ,0,0,,0,,0,,0,,0
1979-03-09 09:34:32.330 ,0,0,0.,12.0,0.,12.0,0.,12.0,0.,12.0
1979-03-09 09:34:26.930 ,0,1,0.,12.0,0.,12.0,0.,12.0,0.,12.0
1979-03-09 09:34:38.930 ,0,1,0.,12.0,0.,12.0,0.,12.0,0.,12.0
1979-03-09 09:34:50.930 ,3,1,0.,12.0,0.,12.0,0.,12.0,0.,12.0
1979-03-09 09:35:02.930 ,3,1,0.,12.0,0.,12.0,0.,12.0,0.,12.0
1979-03-09 09:35:14.930 ,7,1,0.,12.0,0.,12.0,0.,12.0,0.,12.0
1979-03-09 09:35:26.930 ,7,1,0.,12.0,0.,12.0,0.,12.0,0.,12.0
1979-03-09 09:35:38.930 ,4,1,0.,12.0,0.,12.0,0.,12.0,0.,12.0
1979-03-09 09:35:50.930 ,4,1,0.,12.0,0.,12.0,0.,12.0,0.,12.0
1979-03-09 09:36:02.930 ,0,1,0.,12.0,0.,12.0,0.,12.0,0.,12.0
1979-03-09 09:36:14.930 ,0,1,0.,12.0,0.,12.0,0.,12.0,0.,12.0
1979-03-09 09:36:26.930 ,3,1,0.,12.0,0.,12.0,0.,12.0,0.,12.0
1979-03-09 09:36:38.930 ,3,1,0.,12.0,0.,12.0,0.,12.0,0.,12.0
1979-03-09 09:36:50.930 ,7,1,0.,12.0,0.,12.0,0.,12.0,0.,12.0
1979-03-09 09:37:02.930 ,7,1,0.,12.0,0.,12.0,0.,12.0,0.,12.0
1979-03-09 09:37:14.930 ,4,1,0.,12.0,0.,12.0,0.,12.0,0.,12.0
1979-03-09 09:37:26.930 ,4,1,0.,12.0,0.,12.0,0.,12.0,0.,12.0
1979-03-09 09:37:38.920 ,0,1,0.,12.0,0.,12.0,0.,12.0,0.,12.0
1979-03-09 09:37:50.920 ,0,1,0.,12.0,0.,12.0,0.,12.0,0.,12.0
1979-03-09 09:38:02.920 ,3,1,0.,12.0,0.,12.0,0.,12.0,0.,12.0
1979-03-09 09:38:14.920 ,3,1,0.,12.0,0.,12.0,0.,12.0,0.,12.0
1979-03-09 09:38:26.920 ,7,1,0.,12.0,0.,12.0,0.,12.0,0.,12.0
1979-03-09 09:38:38.920 ,7,1,0.,12.0,0.,12.0,0.,12.0,0.,12.0
1979-03-09 09:38:50.920 ,4,1,0.,12.0,0.,12.0,0.,12.0,0.,12.0
1979-03-09 09:39:02.920 ,4,1,0.,12.0,0.,12.0,0.,12.0,0.,12.0
1979-03-09 09:39:14.920 ,0,1,0.,12.0,0.,12.0,0.,12.0,0.,12.0
1979-03-09 09:39:26.920 ,0,1,0.,12.0,0.,12.0,0.,12.0,0.,12.0
1979-03-09 09:39:38.920 ,3,1,0.,12.0,0.,12.0,0.,12.0,0.,12.0
1979-03-09 09:39:50.920 ,3,1,0.,12.0,0.,12.0,0.,12.0,0.,12.0
1979-03-09 09:40:02.920 ,7,1,0.,12.0,0.,12.0,0.,12.0,0.,12.0
1979-03-09 09:40:14.920 ,7,1,0.,12.0,0.,12.0,0.,12.0,0.,12.0
1979-03-09 09:40:26.920 ,4,1,0.,12.0,0.,12.0,0.,12.0,0.,12.0
1979-03-09 09:40:38.920 ,4,1,0.,12.0,0.,12.0,0.,12.0,0.,12.0
1979-03-09 09:40:50.920 ,0,1,0.,12.0,0.,12.0,0.,12.0,0.,12.0
1979-03-09 09:41:02.920 ,0,1,0.,12.0,0.,12.0,0.,12.0,0.,12.0
1979-03-09 09:41:14.920 ,3,1,0.,12.0,0.,12.0,0.,12.0,0.,12.0
1979-03-09 09:41:26.920 ,3,1,0.,12.0,0.,12.0,0.,12.0,0.,12.0
1979-03-09 09:41:38.920 ,7,1,0.,12.0,0.,12.0,0.,12.0,0.,12.0
1979-03-09 09:41:50.920 ,7,1,0.,12.0,0.,12.0,0.,12.0,0.,12.0
1979-03-09 09:42:02.920 ,4,1,0.,12.0,0.,12.0,0.,12.0,0.,12.0
1979-03-09 09:42:14.920 ,4,1,0.,12.0,0.,12.0,0.,12.0,0.,12.0
1979-03-09 09:42:26.920 ,0,1,0.,12.0,0.,12.0,0.,12.0,0.,12.0
1979-03-09 09:42:38.920 ,0,1,0.,12.0,0.,12.0,0.,12.0,0.,12.0
1979-03-09 09:42:50.920 ,3,1,0.,12.0,0.,12.0,0.,12.0,0.,12.0
1979-03-09 09:43:02.920 ,3,1,0.,12.0,0.,12.0,0.,12.0,0.,12.0
1979-03-09 09:43:14.920 ,7,1,0.,12.0,0.,12.0,0.,12.0,0.,12.0
1979-03-09 09:43:26.920 ,7,1,0.,12.0,0.,12.0,0.,12.0,0.,12.0
1979-03-09 09:43:38.920 ,4,1,0.,12.0,0.,12.0,0.,12.0,0.,12.0
1979-03-09 09:43:50.920 ,4,1,0.,12.0,0.,12.0,0.,12.0,0.,12.0
1979-03-09 09:44:02.920 ,0,1,0.,12.0,0.,12.0,0.,12.0,0.,12.0
1979-03-09 09:44:14.920 ,0,1,0.,12.0,0.,12.0,0.,12.0,0.,12.0
1979-03-09 09:44:26.920 ,3,1,0.,12.0,0.,12.0,0.,12.0,0.,12.0
1979-03-09 09:44:38.920 ,3,1,0.,12.0,0.,12.0,0.,12.0,0.,12.0
1979-03-09 09:44:50.920 ,7,1,0.,12.0,0.,12.0,0.,12.0,0.,12.0
1979-03-09 09:45:02.920 ,7,1,0.,12.0,0.,12.0,0.,12.0,0.,12.0
1979-03-09 09:45:14.920 ,4,1,0.,12.0,0.,12.0,0.,12.0,0.,12.0
1979-03-09 09:45:26.920 ,4,1,0.,12.0,0.,12.0,0.,12.0,0.,12.0
1979-03-09 09:45:38.920 ,0,1,0.,12.0,0.,12.0,0.,12.0,0.,12.0
1979-03-09 09:45:50.920 ,0,1,0.,12.0,0.,12.0,0.,12.0,0.,12.0
1979-03-09 09:46:02.920 ,3,1,0.,12.0,0.,12.0,0.,12.0,0.,12.0
1979-03-09 09:46:14.920 ,3,1,0.,12.0,0.,12.0,0.,12.0,0.,12.0
1979-03-09 09:46:26.910 ,7,1,0.,12.0,0.,12.0,0.,12.0,0.,12.0
1979-03-09 09:46:38.910 ,7,1,0.,12.0,0.,12.0,0.,12.0,0.,12.0
1979-03-09 09:46:50.910 ,4,1,0.,12.0,0.,12.0,0.,12.0,0.,12.0
1979-03-09 09:47:02.910 ,4,1,0.,12.0,0.,12.0,0.,12.0,0.,12.0
1979-03-09 09:47:14.910 ,0,1,0.,12.0,0.,12.0,0.,12.0,0.,12.0
1979-03-09 09:47:26.910 ,0,1,0.,12.0,0.,12.0,0.,12.0,0.,12.0
1979-03-09 09:47:38.910 ,3,1,0.,12.0,0.,12.0,0.,12.0,0.,12.0
1979-03-09 09:47:50.910 ,3,1,0.,12.0,0.,12.0,0.,12.0,0.,12.0
1979-03-09 09:48:02.910 ,7,1,0.,12.0,0.,12.0,0.,12.0,0.,12.0
1979-03-09 09:48:14.910 ,7,1,0.,12.0,0.,12.0,0.,12.0,0.,12.0
1979-03-09 09:48:26.910 ,4,1,0.,12.0,0.,12.0,0.,12.0,0.,12.0
1979-03-09 09:48:38.910 ,4,1,0.,12.0,0.,12.0,0.,12.0,0.,12.0
1979-03-09 09:48:50.910 ,0,1,0.,12.0,0.,12.0,0.,12.0,0.,12.0
1979-03-09 09:49:02.910 ,0,1,0.,12.0,0.,12.0,0.,12.0,0.,12.0
1979-03-09 09:49:14.910 ,3,1,0.,12.0,0.,12.0,0.,12.0,0.,12.0
1979-03-09 09:49:26.910 ,3,1,0.,12.0,0.,12.0,0.,12.0,0.,12.0
1979-03-09 09:49:38.910 ,7,1,0.,12.0,0.,12.0,0.,12.0,0.,12.0
1979-03-09 09:49:50.910 ,7,1,0.,12.0,0.,12.0,0.,12.0,0.,12.0
1979-03-09 09:50:02.910 ,4,1,0.,12.0,0.,12.0,0.,12.0,0.,12.0
1979-03-09 09:50:14.910 ,4,1,0.,12.0,0.,12.0,0.,12.0,0.,12.0
1979-03-09 09:50:26.910 ,0,1,0.,12.0,0.,12.0,0.,12.0,0.,12.0
1979-03-09 09:50:38.910 ,0,1,0.,12.0,0.,12.0,0.,12.0,0.,12.0
1979-03-09 09:50:50.910 ,3,1,0.,12.0,0.,12.0,0.,12.0,0.,12.0
1979-03-09 09:51:02.910 ,3,1,0.,12.0,0.,12.0,0.,12.0,0.,12.0
1979-03-09 09:51:14.910 ,7,1,0.,12.0,0.,12.0,0.,12.0,0.,12.0
1979-03-09 09:51:26.910 ,7,1,0.,12.0,0.,12.0,0.,12.0,0.,12.0
1979-03-09 09:51:38.910 ,4,1,0.,12.0,0.,12.0,0.,12.0,0.,12.0
1979-03-09 09:51:50.910 ,4,1,0.,12.0,0.,12.0,0.,12.0,0.,12.0
1979-03-09 09:52:02.910 ,0,1,0.,12.0,0.,12.0,0.,12.0,0.,12.0
1979-03-09 09:52:14.910 ,0,1,0.,12.0,0.,12.0,0.,12.0,0.,12.0
1979-03-09 09:52:26.910 ,3,1,0.,12.0,0.,12.0,0.,12.0,0.,12.0
1979-03-09 09:52:38.910 ,3,1,0.,12.0,0.,12.0,0.,12.0,0.,12.0
1979-03-09 09:52:50.910 ,7,1,0.,12.0,0.,12.0,0.,12.0,0.,12.0
1979-03-09 09:53:02.910 ,7,1,0.,12.0,0.,12.0,0.,12.0,0.,12.0
1979-03-09 09:53:14.910 ,4,1,0.,12.0,0.,12.0,0.,12.0,0.,12.0
1979-03-09 09:53:26.910 ,4,1,0.,12.0,0.,12.0,0.,12.0,0.,12.0
1979-03-09 09:53:38.910 ,0,1,0.,12.0,0.,12.0,0.,12.0,0.,12.0
1979-03-09 09:53:50.910 ,0,1,0.,12.0,0.,12.0,0.,12.0,0.,12.0
1979-03-09 09:54:02.910 ,3,1,0.,12.0,0.,12.0,0.,12.0,0.,12.0
1979-03-09 09:54:14.910 ,3,1,0.,12.0,0.,12.0,0.,12.0,0.,12.0
1979-03-09 09:54:26.910 ,7,1,0.,12.0,0.,12.0,0.,12.0,0.,12.0
1979-03-09 09:54:38.910 ,7,1,0.,12.0,0.,12.0,0.,12.0,0.,12.0
1979-03-09 09:54:50.910 ,4,1,0.,12.0,0.,12.0,0.,12.0,0.,12.0
1979-03-09 09:55:02.910 ,4,1,0.,12.0,0.,12.0,0.,12.0,0.,12.0
1979-03-09 09:55:14.900 ,0,1,0.,12.0,0.,12.0,0.,12.0,0.,12.0
1979-03-09 09:55:26.900 ,0,1,0.,12.0,0.,12.0,0.,12.0,0.,12.0
1979-03-09 09:55:38.900 ,3,1,0.,12.0,0.,12.0,0.,12.0,0.,12.0
1979-03-09 09:55:50.900 ,3,1,0.,12.0,0.,12.0,0.,12.0,0.,12.0
1979-03-09 09:56:02.900 ,7,1,0.,12.0,0.,12.0,0.,12.0,0.,12.0
1979-03-09 09:56:14.900 ,7,1,0.,12.0,0.,12.0,0.,12.0,0.,12.0
1979-03-09 09:56:26.900 ,4,1,0.,12.0,0.,12.0,0.,12.0,0.,12.0
1979-03-09 09:56:38.900 ,4,1,0.,12.0,0.,12.0,0.,12.0,0.,12.0
1979-03-09 09:56:50.900 ,0,1,0.,12.0,0.,12.0,0.,12.0,0.,12.0
1979-03-09 09:57:02.900 ,0,1,0.,12.0,0.,12.0,0.,12.0,0.,12.0
1979-03-09 09:57:14.900 ,3,1,0.,12.0,0.,12.0,0.,12.0,0.,12.0
1979-03-09 09:57:26.900 ,3,1,0.,12.0,0.,12.0,0.,12.0,0.,12.0
1979-03-09 09:57:38.900 ,7,1,0.,12.0,0.,12.0,0.,12.0,0.,12.0
1979-03-09 09:57:50.900 ,7,1,0.,12.0,0.,12.0,0.,12.0,0.,12.0
1979-03-09 09:58:02.900 ,4,1,0.,12.0,0.,12.0,0.,12.0,0.,12.0
1979-03-09 09:58:14.900 ,4,1,0.,12.0,0.,12.0,0.,12.0,0.,12.0
1979-03-09 09:58:26.900 ,0,1,0.,12.0,0.,12.0,0.,12.0,0.,12.0
1979-03-09 09:58:38.900 ,0,1,0.,12.0,0.,12.0,0.,12.0,0.,12.0
1979-03-09 09:58:50.900 ,3,1,0.,12.0,0.,12.0,0.,12.0,0.,12.0
1979-03-09 09:59:02.900 ,3,1,0.,12.0,0.,12.0,0.,12.0,0.,12.0
1979-03-09 09:59:14.900 ,7,1,0.,12.0,0.,12.0,0.,12.0,0.,12.0
1979-03-09 09:59:26.900 ,7,1,0.,12.0,0.,12.0,0.,12.0,0.,12.0
1979-03-09 09:59:38.900 ,4,1,0.,12.0,0.,12.0,0.,12.0,0.,12.0
1979-03-09 09:59:50.900 ,4,1,0.,12.0,0.,12.0,0.,12.0,0.,12.0
1979-03-09 10:00:02.900 ,0,1,0.,12.0,0.,12.0,0.,12.0,0.,12.0
1979-03-09 10:00:14.900 ,0,1,0.,12.0,0.,12.0,0.,12.0,0.,12.0
1979-03-09 10:00:26.900 ,3,1,0.,12.0,0.,12.0,0.,12.0,0.,12.0
1979-03-09 10:00:38.900 ,3,1,0.,12.0,0.,12.0,0.,12.0,0.,12.0
1979-03-09 10:00:50.900 ,7,1,0.,12.0,0.,12.0,0.,12.0,0.,12.0
1979-03-09 10:01:02.900 ,7,1,0.,12.0,0.,12.0,0.,12.0,0.,12.0
1979-03-09 10:01:14.900 ,4,1,0.,12.0,0.,12.0,0.,12.0,0.,12.0
1979-03-09 10:01:26.900 ,4,1,0.,12.0,0.,12.0,0.,12.0,0.,12.0
1979-03-09 10:01:38.900 ,0,1,0.,12.0,0.,12.0,0.,12.0,0.,12.0
1979-03-09 10:01:50.900 ,0,1,0.,12.0,0.,12.0,0.,12.0,0.,12.0
1979-03-09 10:02:02.900 ,3,1,0.,12.0,0.,12.0,0.,12.0,0.,12.0
1979-03-09 10:02:14.900 ,3,1,0.,12.0,0.,12.0,0.,12.0,0.,12.0
1979-03-09 10:02:26.900 ,7,1,0.,12.0,0.,12.0,0.,12.0,0.,12.0
1979-03-09 10:02:38.900 ,7,1,0.,12.0,0.,12.0,0.,12.0,0.,12.0
1979-03-09 10:02:50.900 ,4,1,0.,12.0,0.,12.0,0.,12.0,0.,12.0
1979-03-09 10:03:02.900 ,4,1,0.,12.0,0.,12.0,0.,12.0,0.,12.0
1979-03-09 10:03:14.900 ,0,1,0.,12.0,0.,12.0,0.,12.0,0.,12.0
1979-03-09 10:03:26.900 ,0,1,0.,12.0,0.,12.0,0.,12.0,0.,12.0
1979-03-09 10:03:38.900 ,3,1,0.,12.0,0.,12.0,0.,12.0,0.,12.0
1979-03-09 10:03:50.900 ,3,1,0.,12.0,0.,12.0,0.,12.0,0.,12.0
1979-03-09 10:04:02.900 ,7,1,0.,12.0,0.,12.0,0.,12.0,0.,12.0
1979-03-09 10:04:14.900 ,7,1,0.,12.0,0.,12.0,0.,12.0,0.,12.0
1979-03-09 10:04:26.890 ,4,1,0.,12.0,0.,12.0,0.,12.0,0.,12.0
1979-03-09 10:04:38.890 ,4,1,0.,12.0,0.,12.0,0.,12.0,0.,12.0
1979-03-09 10:04:50.890 ,0,1,0.,12.0,0.,12.0,0.,12.0,0.,12.0
1979-03-09 10:05:02.890 ,0,1,0.,12.0,0.,12.0,0.,12.0,0.,12.0
1979-03-09 10:05:14.890 ,3,1,0.,12.0,0.,12.0,0.,12.0,0.,12.0
1979-03-09 10:05:26.890 ,3,1,0.,12.0,0.,12.0,0.,12.0,0.,12.0
1979-03-09 10:05:38.890 ,7,1,0.,12.0,0.,12.0,0.,12.0,0.,12.0
1979-03-09 10:05:50.890 ,7,1,0.,12.0,0.,12.0,0.,12.0,0.,12.0
1979-03-09 10:06:02.890 ,4,1,0.,12.0,0.,12.0,0.,12.0,0.,12.0
1979-03-09 10:06:14.890 ,4,1,0.,12.0,0.,12.0,0.,12.0,0.,12.0
1979-03-09 10:06:26.890 ,0,1,0.,12.0,0.,12.0,0.,12.0,0.,12.0
1979-03-09 10:06:38.890 ,0,1,0.,12.0,0.,12.0,0.,12.0,0.,12.0
1979-03-09 10:06:50.890 ,3,1,0.,12.0,0.,12.0,0.,12.0,0.,12.0
1979-03-09 10:07:02.890 ,3,1,0.,12.0,0.,12.0,0.,12.0,0.,12.0
1979-03-09 10:07:14.890 ,7,1,0.,12.0,0.,12.0,0.,12.0,0.,12.0
1979-03-09 10:07:26.890 ,7,1,0.,12.0,0.,12.0,0.,12.0,0.,12.0
1979-03-09 10:07:38.890 ,4,1,0.,12.0,0.,12.0,0.,12.0,0.,12.0
1979-03-09 10:07:50.890 ,4,1,0.,12.0,0.,12.0,0.,12.0,0.,12.0
1979-03-09 10:08:02.890 ,0,1,0.,12.0,0.,12.0,0.,12.0,0.,12.0
1979-03-09 10:08:14.890 ,0,1,0.,12.0,0.,12.0,0.,12.0,0.,12.0
1979-03-09 10:08:26.890 ,3,1,0.,12.0,0.,12.0,0.,12.0,0.,12.0
1979-03-09 10:08:38.890 ,3,1,0.,12.0,0.,12.0,0.,12.0,0.,12.0
1979-03-09 10:08:50.890 ,7,1,0.,12.0,0.,12.0,0.,12.0,0.,12.0
1979-03-09 10:09:02.890 ,7,1,0.,12.0,0.,12.0,0.,12.0,0.,12.0
1979-03-09 10:09:14.890 ,4,1,0.,12.0,0.,12.0,0.,12.0,0.,12.0
1979-03-09 10:09:26.890 ,4,1,0.,12.0,0.,12.0,0.,12.0,0.,12.0
1979-03-09 10:09:38.890 ,0,1,0.,12.0,0.,12.0,0.,12.0,0.,12.0
1979-03-09 10:09:50.890 ,0,1,0.,12.0,0.,12.0,0.,12.0,0.,12.0
1979-03-09 10:10:02.890 ,3,1,0.,12.0,0.,12.0,0.,12.0,0.,12.0
1979-03-09 10:10:14.890 ,3,1,0.,12.0,0.,12.0,0.,12.0,0.,12.0
1979-03-09 10:10:26.890 ,7,1,0.,12.0,0.,12.0,0.,12.0,0.,12.0
1979-03-09 10:10:38.890 ,7,1,0.,12.0,0.,12.0,0.,12.0,0.,12.0
1979-03-09 10:10:50.890 ,4,1,0.,12.0,0.,12.0,0.,12.0,0.,12.0
1979-03-09 10:11:02.890 ,4,1,0.,12.0,0.,12.0,0.,12.0,0.,12.0
1979-03-09 10:11:14.890 ,0,1,0.,12.0,0.,12.0,0.,12.0,0.,12.0
1979-03-09 10:11:26.890 ,0,1,0.,12.0,0.,12.0,0.,12.0,0.,12.0
1979-03-09 10:11:38.890 ,3,1,0.,12.0,0.,12.0,0.,12.0,0.,12.0
1979-03-09 10:11:50.890 ,3,1,0.,12.0,0.,12.0,0.,12.0,0.,12.0
1979-03-09 10:12:02.890 ,7,1,0.,12.0,0.,12.0,0.,12.0,0.,12.0
1979-03-09 10:12:14.890 ,7,1,0.,12.0,0.,12.0,0.,12.0,0.,12.0
1979-03-09 10:12:26.890 ,4,1,0.,12.0,0.,12.0,0.,12.0,0.,12.0
1979-03-09 10:12:38.890 ,4,1,0.,12.0,0.,12.0,0.,12.0,0.,12.0
1979-03-09 10:12:50.890 ,0,1,0.,12.0,0.,12.0,0.,12.0,0.,12.0
1979-03-09 10:13:02.890 ,0,1,0.,12.0,0.,12.0,0.,12.0,0.,12.0
1979-03-09 10:13:14.890 ,3,1,0.,12.0,0.,12.0,0.,12.0,0.,12.0
1979-03-09 10:13:26.890 ,3,1,0.,12.0,0.,12.0,0.,12.0,0.,12.0
1979-03-09 10:13:38.880 ,7,1,0.,12.0,0.,12.0,0.,12.0,0.,12.0
1979-03-09 10:13:50.880 ,7,1,0.,12.0,0.,12.0,0.,12.0,0.,12.0
1979-03-09 10:14:02.880 ,4,1,0.,12.0,0.,12.0,0.,12.0,0.,12.0
1979-03-09 10:14:14.880 ,4,1,0.,12.0,0.,12.0,0.,12.0,0.,12.0
1979-03-09 10:14:26.880 ,0,1,0.,12.0,1.,12.0,0.,12.0,0.,12.0
1979-03-09 10:14:38.880 ,0,1,0.,12.0,0.,12.0,0.,12.0,0.,12.0
1979-03-09 10:14:50.880 ,3,1,0.,12.0,0.,12.0,0.,12.0,0.,12.0
1979-03-09 10:15:02.880 ,3,1,0.,12.0,0.,12.0,0.,12.0,0.,12.0
1979-03-09 10:15:14.880 ,7,1,0.,12.0,0.,12.0,0.,12.0,0.,12.0
1979-03-09 10:15:26.880 ,7,1,0.,12.0,0.,12.0,0.,12.0,0.,12.0
1979-03-09 10:15:38.880 ,4,1,0.,12.0,0.,12.0,0.,12.0,0.,12.0
1979-03-09 10:15:50.880 ,4,1,0.,12.0,0.,12.0,0.,12.0,0.,12.0
1979-03-09 10:16:02.880 ,0,1,0.,12.0,0.,12.0,0.,12.0,0.,12.0
1979-03-09 10:16:14.880 ,0,1,0.,12.0,0.,12.0,0.,12.0,0.,12.0
1979-03-09 10:16:26.880 ,3,1,0.,12.0,0.,12.0,0.,12.0,0.,12.0
1979-03-09 10:16:38.880 ,3,1,0.,12.0,0.,12.0,0.,12.0,0.,12.0
1979-03-09 10:16:50.880 ,7,1,0.,12.0,0.,12.0,0.,12.0,0.,12.0
1979-03-09 10:17:02.880 ,7,1,0.,12.0,0.,12.0,0.,12.0,0.,12.0
1979-03-09 10:17:14.880 ,4,1,0.,12.0,0.,12.0,0.,12.0,0.,12.0